AFL7710 EDDB-UUEE

Flight info

Callsign AFL7710
Flight time 2h 30m
Altitude 39000
Route GERGA3Q GERGA Y218 ALUKA L29 GRUDA N858 BOKSU DCT VUBCA DCT LAFAT/K0835F390 L29 INKUZ N858 BENIM M997 RATIN L999 AGLAN M864 DIPOP DIPOP3E
Aircraft B738/M-SDE2E3FGHIRWXY/LB1

Departure

Time 2026-05-05 07:52
Airport Berlin Brandenburg Airport (EDDB)

Arrival

Time 2026-05-05 10:22
Airport Sheremetyevo International Airport (UUEE)
Time Latitude Longitude Altitude Speed Heading
2026-05-05 06:51 52.36503 13.50514 154 ft 0 kts 68°
2026-05-05 07:02 52.36503 13.50513 154 ft 0 kts 68°
2026-05-05 07:29 52.36503 13.50512 154 ft 0 kts 68°
2026-05-05 07:38 52.36496 13.50483 126 ft 4 kts 69°
2026-05-05 07:39 52.36489 13.50451 154 ft 4 kts 67°
2026-05-05 07:39 52.36475 13.50415 154 ft 4 kts 38°
2026-05-05 07:39 52.36453 13.50399 154 ft 4 kts 354°
2026-05-05 07:39 52.36436 13.50405 154 ft 0 kts 339°
2026-05-05 07:43 52.36437 13.50405 154 ft 1 kts 339°
2026-05-05 07:43 52.36451 13.50396 154 ft 4 kts 339°
2026-05-05 07:43 52.36490 13.50372 154 ft 8 kts 340°
2026-05-05 07:44 52.36549 13.50334 154 ft 10 kts 337°
2026-05-05 07:44 52.36589 13.50307 154 ft 1 kts 341°
2026-05-05 07:44 52.36601 13.50295 154 ft 3 kts 311°
2026-05-05 07:44 52.36596 13.50253 154 ft 5 kts 258°
2026-05-05 07:45 52.36622 13.50205 154 ft 8 kts 343°
2026-05-05 07:45 52.36679 13.50170 154 ft 10 kts 336°
2026-05-05 07:45 52.36723 13.50098 154 ft 10 kts 306°
2026-05-05 07:45 52.36768 13.50038 154 ft 8 kts 335°
2026-05-05 07:46 52.36822 13.50003 154 ft 8 kts 340°
2026-05-05 07:46 52.36863 13.49946 154 ft 8 kts 291°
2026-05-05 07:46 52.36854 13.49858 154 ft 8 kts 248°
2026-05-05 07:46 52.36834 13.49774 154 ft 8 kts 249°
2026-05-05 07:47 52.36815 13.49693 154 ft 8 kts 248°
2026-05-05 07:47 52.36796 13.49615 154 ft 7 kts 249°
2026-05-05 07:47 52.36777 13.49537 154 ft 8 kts 249°
2026-05-05 07:47 52.36756 13.49446 154 ft 9 kts 249°
2026-05-05 07:48 52.36732 13.49337 154 ft 11 kts 249°
2026-05-05 07:48 52.36701 13.49214 153 ft 12 kts 249°
2026-05-05 07:48 52.36669 13.49077 153 ft 14 kts 249°
2026-05-05 07:48 52.36634 13.48927 153 ft 15 kts 249°
2026-05-05 07:49 52.36596 13.48766 153 ft 16 kts 249°
2026-05-05 07:49 52.36555 13.48594 153 ft 17 kts 248°
2026-05-05 07:49 52.36515 13.48431 153 ft 11 kts 249°
2026-05-05 07:49 52.36489 13.48318 153 ft 10 kts 251°
2026-05-05 07:50 52.36511 13.48218 153 ft 10 kts 330°
2026-05-05 07:50 52.36576 13.48175 153 ft 10 kts 339°
2026-05-05 07:50 52.36642 13.48148 153 ft 10 kts
2026-05-05 07:50 52.36697 13.48203 153 ft 9 kts 60°
2026-05-05 07:51 52.36710 13.48257 153 ft 0 kts 71°
2026-05-05 07:51 52.36754 13.48443 153 ft 50 kts 69°
2026-05-05 07:51 52.36967 13.49334 154 ft 115 kts 69°
2026-05-05 07:51 52.37317 13.50816 269 ft 155 kts 69°
2026-05-05 07:52 52.37697 13.52496 807 ft 165 kts 70°
2026-05-05 07:52 52.38101 13.54319 1384 ft 176 kts 72°
2026-05-05 07:52 52.38517 13.56195 2096 ft 173 kts 72°
2026-05-05 07:52 52.38943 13.58059 2662 ft 179 kts 70°
2026-05-05 07:53 52.39407 13.59936 3243 ft 180 kts 69°
2026-05-05 07:53 52.39888 13.61892 3704 ft 188 kts 69°
2026-05-05 07:53 52.40385 13.63935 4187 ft 197 kts 69°
2026-05-05 07:53 52.40898 13.66059 4664 ft 205 kts 69°
2026-05-05 07:54 52.41424 13.68261 5118 ft 210 kts 69°
2026-05-05 07:54 52.41963 13.70533 5508 ft 217 kts 70°
2026-05-05 07:54 52.42512 13.72858 5898 ft 222 kts 70°
2026-05-05 07:54 52.43068 13.75215 6288 ft 227 kts 70°
2026-05-05 07:55 52.43649 13.77682 6566 ft 238 kts 69°
2026-05-05 07:55 52.44586 13.79969 6812 ft 249 kts 42°
2026-05-05 07:55 52.45922 13.81851 7089 ft 258 kts 40°
2026-05-05 07:55 52.47313 13.83833 7334 ft 270 kts 40°
2026-05-05 07:56 52.48761 13.85923 7558 ft 284 kts 40°
2026-05-05 07:56 52.50279 13.88125 7793 ft 297 kts 41°
2026-05-05 07:56 52.51833 13.90390 8229 ft 300 kts 41°
2026-05-05 07:56 52.53394 13.92672 9077 ft 300 kts 41°
2026-05-05 07:57 52.54957 13.94958 9900 ft 302 kts 40°
2026-05-05 07:57 52.56534 13.97267 10583 ft 306 kts 40°
2026-05-05 07:57 52.58138 13.99620 11273 ft 311 kts 40°
2026-05-05 07:57 52.59769 14.02012 11992 ft 316 kts 40°
2026-05-05 07:58 52.61525 14.04218 12708 ft 320 kts 30°
2026-05-05 07:58 52.63435 14.06042 13459 ft 323 kts 27°
2026-05-05 07:58 52.65434 14.07824 14161 ft 328 kts 26°
2026-05-05 07:58 52.67452 14.09628 14867 ft 332 kts 26°
2026-05-05 07:59 52.69487 14.11480 15599 ft 336 kts 27°
2026-05-05 07:59 52.71542 14.13382 16320 ft 340 kts 27°
2026-05-05 07:59 52.73618 14.15326 17030 ft 345 kts 27°
2026-05-05 07:59 52.75714 14.17301 17726 ft 349 kts 27°
2026-05-05 08:00 52.77837 14.19307 18393 ft 354 kts 27°
2026-05-05 08:00 52.79994 14.21350 18996 ft 358 kts 27°
2026-05-05 08:00 52.82167 14.23408 19630 ft 361 kts 27°
2026-05-05 08:00 52.84365 14.25479 20245 ft 365 kts 27°
2026-05-05 08:01 52.86591 14.27574 20825 ft 370 kts 27°
2026-05-05 08:01 52.88710 14.30047 21394 ft 378 kts 44°
2026-05-05 08:01 52.90269 14.33518 21986 ft 382 kts 64°
2026-05-05 08:01 52.91156 14.37662 22621 ft 383 kts 76°
2026-05-05 08:02 52.91834 14.41953 23203 ft 388 kts 78°
2026-05-05 08:02 52.92269 14.44839 23557 ft 391 kts 78°
2026-05-05 08:02 52.92926 14.49228 24045 ft 394 kts 78°
2026-05-05 08:02 52.93593 14.53644 24571 ft 396 kts 78°
2026-05-05 08:03 52.94272 14.58081 25079 ft 399 kts 78°
2026-05-05 08:03 52.94964 14.62553 25577 ft 401 kts 78°
2026-05-05 08:03 52.95665 14.67056 26057 ft 404 kts 78°
2026-05-05 08:03 52.96372 14.71584 26556 ft 406 kts 78°
2026-05-05 08:04 52.97081 14.76123 27161 ft 405 kts 78°
2026-05-05 08:04 52.97788 14.80659 27613 ft 409 kts 78°
2026-05-05 08:04 52.98509 14.85305 27705 ft 422 kts 78°
2026-05-05 08:04 52.99248 14.90089 27830 ft 434 kts 78°
2026-05-05 08:05 52.99997 14.94943 27933 ft 445 kts 78°
2026-05-05 08:05 53.00773 14.99986 28032 ft 456 kts 78°
2026-05-05 08:05 53.02370 15.10405 28217 ft 475 kts 78°
2026-05-05 08:06 53.03190 15.15778 28318 ft 484 kts 78°
2026-05-05 08:06 53.04025 15.21261 28387 ft 493 kts 78°
2026-05-05 08:06 53.05723 15.32481 28536 ft 508 kts 78°
2026-05-05 08:07 53.06587 15.38220 28690 ft 514 kts 78°
2026-05-05 08:07 53.07455 15.44007 28885 ft 517 kts 78°
2026-05-05 08:07 53.08320 15.49791 29439 ft 511 kts 78°
2026-05-05 08:07 53.09163 15.55438 30489 ft 495 kts 78°
2026-05-05 08:08 53.09976 15.60903 31451 ft 479 kts 78°
2026-05-05 08:08 53.10764 15.66229 32323 ft 468 kts 78°
2026-05-05 08:08 53.11531 15.71451 33037 ft 459 kts 78°
2026-05-05 08:08 53.12277 15.76535 33907 ft 446 kts 78°
2026-05-05 08:09 53.13002 15.81484 34595 ft 435 kts 78°
2026-05-05 08:09 53.13702 15.86290 35162 ft 428 kts 78°
2026-05-05 08:09 53.14400 15.91090 35562 ft 425 kts 78°
2026-05-05 08:09 53.15095 15.95896 35869 ft 426 kts 78°
2026-05-05 08:10 53.15792 16.00726 35983 ft 431 kts 78°
2026-05-05 08:10 53.16496 16.05617 36047 ft 437 kts 78°
2026-05-05 08:10 53.17926 16.15599 36179 ft 448 kts 78°
2026-05-05 08:11 53.19384 16.25834 36294 ft 459 kts 78°
2026-05-05 08:11 53.20867 16.36313 36399 ft 469 kts 78°
2026-05-05 08:12 53.22371 16.47017 36500 ft 479 kts 78°
2026-05-05 08:12 53.23131 16.52453 36673 ft 480 kts 78°
2026-05-05 08:12 53.23876 16.57791 37473 ft 465 kts 78°
2026-05-05 08:13 53.24596 16.62968 38309 ft 450 kts 78°
2026-05-05 08:13 53.25284 16.67938 38799 ft 443 kts 78°
2026-05-05 08:13 53.26674 16.78026 38920 ft 448 kts 78°
2026-05-05 08:14 53.28077 16.88256 38933 ft 455 kts 78°
2026-05-05 08:14 53.29482 16.98638 38936 ft 462 kts 78°
2026-05-05 08:15 53.30889 17.09187 38936 ft 468 kts 78°
2026-05-05 08:15 53.32303 17.19849 38920 ft 475 kts 78°
2026-05-05 08:16 53.33736 17.30723 38930 ft 481 kts 78°
2026-05-05 08:16 53.35175 17.41722 38931 ft 487 kts 78°
2026-05-05 08:17 53.36621 17.52858 38937 ft 492 kts 78°
2026-05-05 08:17 53.38066 17.64082 38929 ft 494 kts 79°
2026-05-05 08:18 53.39510 17.75379 38928 ft 496 kts 79°
2026-05-05 08:18 53.40942 17.86686 38934 ft 496 kts 79°
2026-05-05 08:19 53.42354 17.97917 38924 ft 495 kts 79°
2026-05-05 08:19 53.43762 18.09208 38929 ft 494 kts 79°
2026-05-05 08:20 53.45154 18.20469 38930 ft 493 kts 79°
2026-05-05 08:20 53.46536 18.31739 38930 ft 492 kts 79°
2026-05-05 08:21 53.47901 18.42974 38932 ft 491 kts 80°
2026-05-05 08:21 53.49247 18.54131 38920 ft 490 kts 80°
2026-05-05 08:22 53.50599 18.65422 38932 ft 490 kts 80°
2026-05-05 08:22 53.51932 18.76638 38936 ft 489 kts 79°
2026-05-05 08:23 53.53853 18.87545 38943 ft 490 kts 71°
2026-05-05 08:23 53.56164 18.98340 38920 ft 491 kts 71°
2026-05-05 08:24 53.58442 19.09173 38929 ft 490 kts 71°
2026-05-05 08:24 53.60651 19.20032 38932 ft 491 kts 72°
2026-05-05 08:25 53.62836 19.30929 38936 ft 491 kts 72°
2026-05-05 08:25 53.65002 19.41785 38934 ft 492 kts 72°
2026-05-05 08:26 53.67175 19.52724 38946 ft 492 kts 72°
2026-05-05 08:26 53.69346 19.63700 38930 ft 493 kts 72°
2026-05-05 08:27 53.71505 19.74681 38931 ft 493 kts 72°
2026-05-05 08:27 53.73651 19.85698 38936 ft 494 kts 72°
2026-05-05 08:28 53.75780 19.96732 38930 ft 494 kts 72°
2026-05-05 08:28 53.77908 20.07812 38931 ft 494 kts 72°
2026-05-05 08:29 53.80012 20.18828 38935 ft 494 kts 72°
2026-05-05 08:30 53.83168 20.35466 38929 ft 495 kts 72°
2026-05-05 08:30 53.85256 20.46554 38934 ft 494 kts 72°
2026-05-05 08:31 53.87335 20.57671 38928 ft 494 kts 72°
2026-05-05 08:31 53.89398 20.68790 38926 ft 494 kts 73°
2026-05-05 08:32 53.91451 20.79915 38926 ft 494 kts 73°
2026-05-05 08:32 53.93479 20.90971 38928 ft 494 kts 73°
2026-05-05 08:33 53.95512 21.02116 38942 ft 494 kts 73°
2026-05-05 08:33 53.97535 21.13280 38924 ft 495 kts 73°
2026-05-05 08:34 53.99550 21.24452 38923 ft 495 kts 73°
2026-05-05 08:34 54.01569 21.35662 38928 ft 495 kts 73°
2026-05-05 08:35 54.03577 21.46811 38927 ft 495 kts 73°
2026-05-05 08:35 54.05588 21.58052 38910 ft 495 kts 73°
2026-05-05 08:36 54.07579 21.69261 38921 ft 494 kts 73°
2026-05-05 08:36 54.09557 21.80469 38926 ft 494 kts 73°
2026-05-05 08:37 54.11511 21.91616 38938 ft 493 kts 73°
2026-05-05 08:37 54.13466 22.02832 38925 ft 494 kts 73°
2026-05-05 08:38 54.15413 22.14061 38919 ft 494 kts 73°
2026-05-05 08:38 54.17347 22.25306 38910 ft 493 kts 73°
2026-05-05 08:39 54.19261 22.36553 38920 ft 493 kts 74°
2026-05-05 08:39 54.21162 22.47800 38927 ft 493 kts 74°
2026-05-05 08:40 54.23059 22.59083 38927 ft 493 kts 74°
2026-05-05 08:40 54.24941 22.70350 38926 ft 493 kts 74°
2026-05-05 08:41 54.26804 22.81574 38926 ft 493 kts 74°
2026-05-05 08:41 54.28670 22.92889 38910 ft 493 kts 74°
2026-05-05 08:42 54.30524 23.04193 38919 ft 493 kts 74°
2026-05-05 08:42 54.32289 23.15564 38923 ft 492 kts 76°
2026-05-05 08:43 54.33947 23.26951 38932 ft 492 kts 76°
2026-05-05 08:43 54.35591 23.38273 38927 ft 492 kts 76°
2026-05-05 08:44 54.37252 23.49680 38923 ft 492 kts 76°
2026-05-05 08:44 54.38906 23.61083 38903 ft 492 kts 76°
2026-05-05 08:45 54.40543 23.72462 38918 ft 491 kts 76°
2026-05-05 08:45 54.42168 23.83836 38920 ft 490 kts 76°
2026-05-05 08:46 54.44108 23.95026 38941 ft 489 kts 69°
2026-05-05 08:46 54.46573 24.05915 38931 ft 489 kts 68°
2026-05-05 08:47 54.49066 24.16787 38924 ft 488 kts 68°
2026-05-05 08:47 54.51481 24.27649 38925 ft 488 kts 69°
2026-05-05 08:48 54.53870 24.38610 38918 ft 487 kts 69°
2026-05-05 08:48 54.56229 24.49527 38923 ft 486 kts 69°
2026-05-05 08:49 54.58580 24.60447 38946 ft 485 kts 69°
2026-05-05 08:49 54.60529 24.69539 38933 ft 485 kts 69°
2026-05-05 08:50 54.63238 24.82239 38929 ft 485 kts 69°
2026-05-05 08:50 54.65169 24.91345 38933 ft 485 kts 69°
2026-05-05 08:51 54.67481 25.02293 38937 ft 485 kts 69°
2026-05-05 08:51 54.69778 25.13237 38941 ft 484 kts 70°
2026-05-05 08:52 54.72067 25.24196 38954 ft 484 kts 70°
2026-05-05 08:52 54.74344 25.35163 38927 ft 485 kts 70°
2026-05-05 08:53 54.76617 25.46168 38925 ft 485 kts 70°
2026-05-05 08:53 54.78878 25.57178 38920 ft 485 kts 70°
2026-05-05 08:54 54.81134 25.68214 38915 ft 485 kts 70°
2026-05-05 08:54 54.83353 25.79286 38910 ft 486 kts 73°
2026-05-05 08:55 54.85011 25.90632 38912 ft 485 kts 77°
2026-05-05 08:55 54.86486 26.02004 38920 ft 486 kts 77°
2026-05-05 08:56 54.88040 26.13427 38916 ft 487 kts 77°
2026-05-05 08:56 54.89621 26.24904 38908 ft 487 kts 77°
2026-05-05 08:57 54.91181 26.36367 38914 ft 488 kts 77°
2026-05-05 08:57 54.92733 26.47873 38911 ft 488 kts 77°
2026-05-05 08:58 54.94262 26.59294 38900 ft 488 kts 77°
2026-05-05 08:58 54.95791 26.70805 38921 ft 488 kts 77°
2026-05-05 08:59 54.97311 26.82333 38915 ft 489 kts 77°
2026-05-05 08:59 54.98821 26.93876 38906 ft 489 kts 77°
2026-05-05 09:00 55.00325 27.05461 38901 ft 490 kts 77°
2026-05-05 09:00 55.01820 27.17077 38903 ft 490 kts 78°
2026-05-05 09:01 55.03292 27.28608 38896 ft 490 kts 78°
2026-05-05 09:01 55.04762 27.40206 38898 ft 490 kts 78°
2026-05-05 09:02 55.06209 27.51833 38911 ft 490 kts 78°
2026-05-05 09:02 55.07628 27.63490 38899 ft 491 kts 78°
2026-05-05 09:03 55.09037 27.75157 38897 ft 491 kts 78°
2026-05-05 09:03 55.10431 27.86772 38899 ft 491 kts 78°
2026-05-05 09:04 55.11824 27.98469 38887 ft 492 kts 78°
2026-05-05 09:04 55.13206 28.10175 38894 ft 492 kts 78°
2026-05-05 09:05 55.14573 28.21891 38886 ft 492 kts 80°
2026-05-05 09:05 55.15472 28.33757 38891 ft 491 kts 85°
2026-05-05 09:06 55.16106 28.45657 38881 ft 492 kts 85°
2026-05-05 09:06 55.16747 28.57587 38892 ft 492 kts 85°
2026-05-05 09:07 55.17420 28.69432 38873 ft 492 kts 85°
2026-05-05 09:07 55.18105 28.81352 38878 ft 492 kts 85°
2026-05-05 09:08 55.18781 28.93273 38877 ft 492 kts 85°
2026-05-05 09:08 55.19442 29.05202 38881 ft 492 kts 85°
2026-05-05 09:09 55.20090 29.17138 38876 ft 492 kts 85°
2026-05-05 09:09 55.20726 29.29064 38876 ft 492 kts 85°
2026-05-05 09:10 55.21349 29.40972 38866 ft 491 kts 85°
2026-05-05 09:10 55.21960 29.52871 38870 ft 490 kts 85°
2026-05-05 09:11 55.22555 29.64682 38872 ft 490 kts 86°
2026-05-05 09:11 55.23142 29.76570 38871 ft 489 kts 86°
2026-05-05 09:12 55.23717 29.88464 38876 ft 489 kts 86°
2026-05-05 09:12 55.24280 30.00340 38868 ft 489 kts 86°
2026-05-05 09:13 55.24831 30.12212 38889 ft 488 kts 86°
2026-05-05 09:13 55.25371 30.24084 38884 ft 488 kts 86°
2026-05-05 09:14 55.25899 30.35962 38882 ft 489 kts 86°
2026-05-05 09:14 55.26412 30.47775 38884 ft 489 kts 86°
2026-05-05 09:15 55.26917 30.59657 38880 ft 489 kts 86°
2026-05-05 09:15 55.27413 30.71568 38872 ft 489 kts 86°
2026-05-05 09:16 55.27917 30.83450 38874 ft 489 kts 84°
2026-05-05 09:16 55.29559 30.94987 38886 ft 488 kts 70°
2026-05-05 09:17 55.31822 31.06229 38878 ft 489 kts 70°
2026-05-05 09:17 55.34012 31.17466 38876 ft 489 kts 71°
2026-05-05 09:18 55.36160 31.28818 38873 ft 490 kts 71°
2026-05-05 09:18 55.38299 31.40213 38871 ft 490 kts 71°
2026-05-05 09:19 55.40421 31.51616 38867 ft 489 kts 71°
2026-05-05 09:19 55.42515 31.62928 38872 ft 489 kts 72°
2026-05-05 09:20 55.44612 31.74322 38873 ft 489 kts 72°
2026-05-05 09:20 55.46702 31.85746 38873 ft 489 kts 72°
2026-05-05 09:21 55.48775 31.97149 38871 ft 488 kts 72°
2026-05-05 09:21 55.50839 32.08571 38871 ft 488 kts 72°
2026-05-05 09:22 55.52892 32.20003 38869 ft 488 kts 72°
2026-05-05 09:22 55.54922 32.31380 38871 ft 488 kts 73°
2026-05-05 09:23 55.56950 32.42813 38869 ft 488 kts 73°
2026-05-05 09:23 55.58965 32.54250 38872 ft 487 kts 73°
2026-05-05 09:24 55.60969 32.65690 38870 ft 487 kts 73°
2026-05-05 09:24 55.62963 32.77151 38868 ft 487 kts 73°
2026-05-05 09:25 55.64946 32.88618 38868 ft 487 kts 73°
2026-05-05 09:25 55.66907 33.00037 38876 ft 487 kts 73°
2026-05-05 09:26 55.68867 33.11517 38872 ft 487 kts 73°
2026-05-05 09:26 55.70821 33.23028 38852 ft 487 kts 73°
2026-05-05 09:27 55.72757 33.34536 38866 ft 486 kts 73°
2026-05-05 09:27 55.74678 33.46050 38869 ft 487 kts 74°
2026-05-05 09:27 55.75624 33.51749 38616 ft 491 kts 74°
2026-05-05 09:28 55.76587 33.57564 38052 ft 488 kts 74°
2026-05-05 09:28 55.77534 33.63306 37804 ft 478 kts 74°
2026-05-05 09:28 55.78462 33.68940 37507 ft 471 kts 74°
2026-05-05 09:28 55.79370 33.74478 37219 ft 463 kts 73°
2026-05-05 09:29 55.80264 33.79952 36938 ft 456 kts 73°
2026-05-05 09:29 55.81142 33.85339 36661 ft 450 kts 73°
2026-05-05 09:29 55.82004 33.90644 36383 ft 444 kts 73°
2026-05-05 09:29 55.82843 33.95830 35998 ft 441 kts 73°
2026-05-05 09:30 55.83695 34.01107 35447 ft 443 kts 73°
2026-05-05 09:30 55.84545 34.06385 34922 ft 445 kts 73°
2026-05-05 09:30 55.85394 34.11678 34426 ft 445 kts 73°
2026-05-05 09:30 55.86246 34.17002 33922 ft 446 kts 73°
2026-05-05 09:31 55.87097 34.22331 33366 ft 447 kts 73°
2026-05-05 09:31 55.87947 34.27673 32825 ft 448 kts 73°
2026-05-05 09:31 55.88790 34.33037 32262 ft 449 kts 75°
2026-05-05 09:31 55.89354 34.38513 31687 ft 450 kts 86°
2026-05-05 09:32 55.89498 34.44081 31187 ft 450 kts 89°
2026-05-05 09:32 55.89570 34.49656 30656 ft 451 kts 90°
2026-05-05 09:32 55.89630 34.55182 30150 ft 451 kts 90°
2026-05-05 09:32 55.89701 34.60770 29580 ft 451 kts 89°
2026-05-05 09:33 55.89784 34.66361 28993 ft 450 kts 89°
2026-05-05 09:33 55.89876 34.71930 28415 ft 449 kts 89°
2026-05-05 09:33 55.89971 34.77489 27851 ft 448 kts 89°
2026-05-05 09:33 55.90065 34.83036 27268 ft 447 kts 89°
2026-05-05 09:34 55.90157 34.88583 26667 ft 447 kts 89°
2026-05-05 09:34 55.90246 34.94113 26063 ft 446 kts 89°
2026-05-05 09:34 55.90331 34.99635 25473 ft 446 kts 89°
2026-05-05 09:34 55.90412 35.05150 24923 ft 444 kts 89°
2026-05-05 09:35 55.90494 35.10646 24345 ft 444 kts 89°
2026-05-05 09:35 55.90657 35.21628 23269 ft 441 kts 89°
2026-05-05 09:35 55.90733 35.27017 22619 ft 440 kts 89°
2026-05-05 09:36 55.90808 35.32459 21983 ft 439 kts 89°
2026-05-05 09:36 55.90880 35.37891 21358 ft 437 kts 89°
2026-05-05 09:36 55.90949 35.43305 20739 ft 436 kts 89°
2026-05-05 09:36 55.91016 35.48689 20142 ft 434 kts 90°
2026-05-05 09:37 55.91080 35.54049 19551 ft 432 kts 90°
2026-05-05 09:37 55.91141 35.59390 18971 ft 429 kts 90°
2026-05-05 09:37 55.91200 35.64703 18403 ft 427 kts 90°
2026-05-05 09:37 55.91255 35.69980 17795 ft 424 kts 90°
2026-05-05 09:38 55.91310 35.75225 17178 ft 422 kts 90°
2026-05-05 09:38 55.91344 35.78661 16980 ft 415 kts 90°
2026-05-05 09:38 55.91393 35.83723 16809 ft 401 kts 90°
2026-05-05 09:38 55.91567 35.88614 16621 ft 390 kts 83°
2026-05-05 09:39 55.91948 35.93333 16445 ft 380 kts 81°
2026-05-05 09:39 55.92366 35.97952 16272 ft 373 kts 81°
2026-05-05 09:39 55.92752 36.02517 16116 ft 372 kts 82°
2026-05-05 09:39 55.93109 36.07078 15950 ft 372 kts 82°
2026-05-05 09:40 55.93458 36.11651 15786 ft 372 kts 81°
2026-05-05 09:40 55.94275 36.16000 15597 ft 371 kts 57°
2026-05-05 09:40 55.95912 36.19463 15449 ft 360 kts 36°
2026-05-05 09:40 55.97990 36.21775 15191 ft 346 kts 19°
2026-05-05 09:41 56.00211 36.23355 14832 ft 342 kts 16°
2026-05-05 09:41 56.02428 36.24872 14414 ft 342 kts 16°
2026-05-05 09:41 56.04649 36.26411 13947 ft 343 kts 16°
2026-05-05 09:41 56.06852 36.27963 13460 ft 345 kts 17°
2026-05-05 09:42 56.09083 36.29553 12937 ft 346 kts 17°
2026-05-05 09:42 56.11346 36.31174 12409 ft 347 kts 17°
2026-05-05 09:42 56.13564 36.32766 11905 ft 347 kts 17°
2026-05-05 09:42 56.15804 36.34376 11404 ft 348 kts 17°
2026-05-05 09:43 56.17958 36.36404 10896 ft 354 kts 31°
2026-05-05 09:43 56.19925 36.39083 10425 ft 355 kts 34°
2026-05-05 09:43 56.21860 36.41837 9925 ft 354 kts 34°
2026-05-05 09:43 56.23805 36.44538 9423 ft 353 kts 33°
2026-05-05 09:44 56.25586 36.47568 9022 ft 354 kts 52°
2026-05-05 09:44 56.26668 36.51465 8965 ft 344 kts 71°
2026-05-05 09:44 56.27275 36.55524 8963 ft 329 kts 75°
2026-05-05 09:44 56.27819 36.59427 8954 ft 317 kts 75°
2026-05-05 09:45 56.28366 36.63248 8879 ft 316 kts 75°
2026-05-05 09:45 56.28930 36.67092 8609 ft 319 kts 74°
2026-05-05 09:45 56.29503 36.70960 8357 ft 318 kts 74°
2026-05-05 09:45 56.30081 36.74782 8107 ft 315 kts 74°
2026-05-05 09:46 56.30657 36.78571 7851 ft 312 kts 74°
2026-05-05 09:46 56.31218 36.82273 7580 ft 310 kts 73°
2026-05-05 09:46 56.31751 36.86041 7196 ft 311 kts 81°
2026-05-05 09:46 56.31663 36.89897 7005 ft 304 kts 101°
2026-05-05 09:47 56.31300 36.93620 6979 ft 298 kts 101°
2026-05-05 09:47 56.30952 36.97294 6973 ft 300 kts 101°
2026-05-05 09:47 56.30608 37.01046 6985 ft 306 kts 100°
2026-05-05 09:47 56.30266 37.04816 6969 ft 302 kts 101°
2026-05-05 09:48 56.29936 37.08470 6952 ft 289 kts 101°
2026-05-05 09:48 56.29597 37.11963 6959 ft 276 kts 107°
2026-05-05 09:48 56.28893 37.15104 6996 ft 268 kts 120°
2026-05-05 09:48 56.28074 37.18141 7006 ft 271 kts 118°
2026-05-05 09:49 56.27269 37.21224 6973 ft 273 kts 118°
2026-05-05 09:49 56.26473 37.24306 6981 ft 272 kts 118°
2026-05-05 09:49 56.25641 37.27352 6965 ft 269 kts 128°
2026-05-05 09:49 56.24300 37.29493 6987 ft 252 kts 160°
2026-05-05 09:50 56.22699 37.30580 6977 ft 244 kts 171°
2026-05-05 09:50 56.21049 37.31381 6997 ft 247 kts 172°
2026-05-05 09:50 56.19388 37.32166 7003 ft 251 kts 172°
2026-05-05 09:50 56.17779 37.33438 6967 ft 261 kts 144°
2026-05-05 09:51 56.16729 37.36200 6635 ft 281 kts 108°
2026-05-05 09:51 56.16723 37.39706 6294 ft 285 kts 74°
2026-05-05 09:51 56.17306 37.43113 5957 ft 287 kts 72°
2026-05-05 09:51 56.17885 37.46562 5561 ft 290 kts 73°
2026-05-05 09:52 56.18436 37.50050 5197 ft 291 kts 74°
2026-05-05 09:52 56.18968 37.53539 4995 ft 286 kts 74°
2026-05-05 09:52 56.19274 37.56975 4960 ft 274 kts 97°
2026-05-05 09:52 56.18744 37.60116 4901 ft 259 kts 122°
2026-05-05 09:53 56.17660 37.62624 4643 ft 252 kts 139°
2026-05-05 09:53 56.16429 37.64861 4391 ft 251 kts 139°
2026-05-05 09:53 56.15209 37.67077 4146 ft 249 kts 139°
2026-05-05 09:53 56.14008 37.69272 4017 ft 243 kts 140°
2026-05-05 09:54 56.12851 37.71383 3994 ft 231 kts 139°
2026-05-05 09:54 56.11752 37.73397 3986 ft 219 kts 139°
2026-05-05 09:54 56.10720 37.75289 4003 ft 214 kts 141°
2026-05-05 09:54 56.09590 37.76943 3971 ft 205 kts 164°
2026-05-05 09:55 56.08261 37.77164 4010 ft 189 kts 194°
2026-05-05 09:55 56.06980 37.76582 3819 ft 193 kts 203°
2026-05-05 09:55 56.05711 37.75843 3594 ft 189 kts 204°
2026-05-05 09:55 56.04476 37.75120 3324 ft 185 kts 203°
2026-05-05 09:56 56.03262 37.74387 3078 ft 182 kts 202°
2026-05-05 09:56 56.02174 37.73367 2773 ft 175 kts 232°
2026-05-05 09:56 56.01758 37.71412 2648 ft 169 kts 255°
2026-05-05 09:56 56.01372 37.69423 2536 ft 165 kts 248°
2026-05-05 09:57 56.01031 37.67441 2507 ft 167 kts 253°
2026-05-05 09:57 56.00736 37.65471 2528 ft 169 kts 255°
2026-05-05 09:57 56.00406 37.63390 2486 ft 173 kts 253°
2026-05-05 09:57 56.00126 37.61413 2470 ft 155 kts 253°
2026-05-05 09:58 55.99864 37.59653 2359 ft 138 kts 252°
2026-05-05 09:58 55.99616 37.58007 2140 ft 137 kts 253°
2026-05-05 09:58 55.99374 37.56403 1983 ft 132 kts 254°
2026-05-05 09:58 55.99135 37.54809 1826 ft 133 kts 254°
2026-05-05 09:59 55.98891 37.53192 1650 ft 135 kts 255°
2026-05-05 09:59 55.98647 37.51582 1466 ft 133 kts 254°
2026-05-05 09:59 55.98413 37.50002 1281 ft 130 kts 255°
2026-05-05 09:59 55.98187 37.48341 1167 ft 154 kts 258°
2026-05-05 10:00 55.97946 37.46423 2118 ft 159 kts 257°
2026-05-05 10:00 55.97714 37.44357 2911 ft 186 kts 257°
2026-05-05 10:00 55.97436 37.42167 3446 ft 177 kts 253°
2026-05-05 10:00 55.97044 37.40061 3624 ft 187 kts 246°
2026-05-05 10:01 55.96321 37.38065 3492 ft 198 kts 229°
2026-05-05 10:01 55.95296 37.36284 3361 ft 211 kts 225°
2026-05-05 10:01 55.94203 37.34508 3215 ft 212 kts 225°
2026-05-05 10:01 55.93074 37.32816 3072 ft 211 kts 220°
2026-05-05 10:02 55.91840 37.31352 3029 ft 220 kts 213°
2026-05-05 10:02 55.90515 37.29998 2997 ft 217 kts 213°
2026-05-05 10:02 55.89213 37.28670 2992 ft 212 kts 213°
2026-05-05 10:02 55.87913 37.27363 2997 ft 213 kts 217°
2026-05-05 10:03 55.86941 37.25482 3013 ft 209 kts 242°
2026-05-05 10:03 55.86459 37.23020 3004 ft 211 kts 259°
2026-05-05 10:03 55.86429 37.20434 3002 ft 214 kts 276°
2026-05-05 10:03 55.86890 37.17867 3010 ft 221 kts 289°
2026-05-05 10:04 55.87511 37.15352 3001 ft 219 kts 289°
2026-05-05 10:04 55.88126 37.12913 2974 ft 213 kts 291°
2026-05-05 10:04 55.88732 37.10489 3001 ft 216 kts 290°
2026-05-05 10:04 55.89344 37.08009 3001 ft 221 kts 289°
2026-05-05 10:05 55.89951 37.05542 2991 ft 214 kts 289°
2026-05-05 10:05 55.90544 37.03120 2988 ft 215 kts 291°
2026-05-05 10:05 55.91216 37.00711 2981 ft 221 kts 302°
2026-05-05 10:05 55.92410 36.98912 3001 ft 229 kts 319°
2026-05-05 10:06 55.93726 36.97295 3017 ft 229 kts 320°
2026-05-05 10:06 55.95023 36.95683 2988 ft 229 kts 319°
2026-05-05 10:06 55.96327 36.94064 3001 ft 228 kts 320°
2026-05-05 10:06 55.97630 36.92444 2988 ft 228 kts 320°
2026-05-05 10:07 55.99082 36.91251 2972 ft 238 kts 348°
2026-05-05 10:07 56.00727 36.91759 3007 ft 248 kts 23°
2026-05-05 10:07 56.02205 36.93406 2971 ft 252 kts 30°
2026-05-05 10:07 56.03665 36.95152 2975 ft 251 kts 30°
2026-05-05 10:08 56.05124 36.96884 2986 ft 251 kts 30°
2026-05-05 10:08 56.06575 36.98600 2983 ft 251 kts 30°
2026-05-05 10:08 56.08034 37.00310 2978 ft 251 kts 29°
2026-05-05 10:08 56.09496 37.02022 2989 ft 251 kts 30°
2026-05-05 10:09 56.10943 37.03782 2981 ft 252 kts 37°
2026-05-05 10:09 56.12013 37.06224 2992 ft 255 kts 63°
2026-05-05 10:09 56.12576 37.09239 2983 ft 255 kts 76°
2026-05-05 10:09 56.13005 37.12317 2965 ft 254 kts 77°
2026-05-05 10:10 56.13424 37.15377 2981 ft 252 kts 77°
2026-05-05 10:10 56.13848 37.18456 2994 ft 253 kts 77°
2026-05-05 10:10 56.14279 37.21552 2993 ft 256 kts 76°
2026-05-05 10:10 56.14714 37.24639 2987 ft 253 kts 77°
2026-05-05 10:11 56.15144 37.27692 2993 ft 253 kts 77°
2026-05-05 10:11 56.15577 37.30781 3017 ft 257 kts 77°
2026-05-05 10:11 56.16002 37.33816 3000 ft 249 kts 76°
2026-05-05 10:11 56.16447 37.36796 2994 ft 247 kts 75°
2026-05-05 10:12 56.16908 37.39827 2997 ft 254 kts 75°
2026-05-05 10:12 56.17374 37.42892 2994 ft 256 kts 76°
2026-05-05 10:12 56.17837 37.45958 2999 ft 253 kts 77°
2026-05-05 10:12 56.18291 37.48983 2983 ft 250 kts 76°
2026-05-05 10:13 56.18743 37.52014 2967 ft 253 kts 76°
2026-05-05 10:13 56.19204 37.55093 3003 ft 258 kts 77°
2026-05-05 10:13 56.19296 37.58240 2969 ft 248 kts 107°
2026-05-05 10:13 56.18573 37.60882 2975 ft 227 kts 131°
2026-05-05 10:14 56.17555 37.62914 2977 ft 211 kts 142°
2026-05-05 10:14 56.16530 37.64757 2970 ft 206 kts 143°
2026-05-05 10:14 56.15515 37.66562 2974 ft 205 kts 141°
2026-05-05 10:14 56.14505 37.68380 2990 ft 206 kts 140°
2026-05-05 10:15 56.13495 37.70215 2968 ft 207 kts 139°
2026-05-05 10:15 56.12488 37.72045 2982 ft 206 kts 139°
2026-05-05 10:15 56.11486 37.73879 2979 ft 205 kts 142°
2026-05-05 10:15 56.10486 37.75701 2983 ft 205 kts 139°
2026-05-05 10:16 56.09376 37.77207 2970 ft 196 kts 170°
2026-05-05 10:16 56.08112 37.77135 2998 ft 181 kts 202°
2026-05-05 10:16 56.06903 37.76447 2993 ft 183 kts 203°
2026-05-05 10:16 56.05690 37.75759 2990 ft 182 kts 202°
2026-05-05 10:17 56.04508 37.75080 2983 ft 176 kts 201°
2026-05-05 10:17 56.03345 37.74423 2972 ft 175 kts 202°
2026-05-05 10:17 56.02250 37.73559 2969 ft 168 kts 226°
2026-05-05 10:17 56.01659 37.71834 2956 ft 166 kts 250°
2026-05-05 10:18 56.01329 37.69811 2824 ft 174 kts 254°
2026-05-05 10:18 56.01021 37.67718 2705 ft 171 kts 253°
2026-05-05 10:18 56.00753 37.65698 2582 ft 167 kts 255°
2026-05-05 10:18 56.00464 37.63658 2512 ft 165 kts 254°
2026-05-05 10:19 56.00187 37.61793 2474 ft 146 kts 253°
2026-05-05 10:19 55.99928 37.60077 2396 ft 141 kts 252°
2026-05-05 10:19 55.99676 37.58413 2215 ft 139 kts 252°
2026-05-05 10:19 55.99435 37.56799 2027 ft 132 kts 253°
2026-05-05 10:20 55.99199 37.55250 1828 ft 127 kts 253°
2026-05-05 10:20 55.98955 37.53655 1679 ft 137 kts 253°
2026-05-05 10:20 55.98712 37.52012 1509 ft 144 kts 256°
2026-05-05 10:20 55.98459 37.50299 1364 ft 137 kts 254°
2026-05-05 10:21 55.98200 37.48641 1085 ft 144 kts 250°
2026-05-05 10:21 55.97943 37.46902 958 ft 146 kts 258°
2026-05-05 10:21 55.97687 37.45139 768 ft 146 kts 254°
2026-05-05 10:21 55.97436 37.43455 654 ft 133 kts 252°
2026-05-05 10:22 55.97224 37.42062 640 ft 88 kts 255°
2026-05-05 10:22 55.97143 37.41501 647 ft 23 kts 256°
2026-05-05 10:22 55.97196 37.41331 638 ft 15 kts 343°
2026-05-05 10:22 55.97240 37.41310 638 ft 0 kts 345°
2026-05-05 10:24 55.97241 37.41309 638 ft 1 kts 345°
2026-05-05 10:24 55.97263 37.41299 638 ft 6 kts 345°
2026-05-05 10:25 55.97329 37.41267 639 ft 14 kts 346°
2026-05-05 10:25 55.97402 37.41234 639 ft 19 kts 346°
2026-05-05 10:25 55.97491 37.41192 640 ft 0 kts 344°
2026-05-05 10:26 55.97494 37.41190 640 ft 2 kts 344°
2026-05-05 10:26 55.97531 37.41172 638 ft 10 kts 345°
2026-05-05 10:26 55.97628 37.41130 638 ft 18 kts 350°
2026-05-05 10:26 55.97700 37.41116 638 ft 6 kts 355°
2026-05-05 10:27 55.97710 37.41115 643 ft 0 kts 355°
2026-05-05 10:27 55.97713 37.41114 643 ft 0 kts 355°